CZ-6A DEB, 60754

Orbit data source: Space-Track

CZ-6A DEB, 60754 is space debris in LEO originally from a launch on Tue, 06 Aug 2024 UTC launched from the Taiyaun Space Center, China (TSC). Debris objects in space refer to the collection of defunct objects orbiting the Earth. Examples of debris include non-operational satellites, rocket bodies, and fragments generated from explosions, collisions, or faulty payload assembly.

Loading next visibility...
Identifier
60754, 2024-140ED
Orbit
LEO
Country
Flag of CNCN / PRC
Related business
Manufacturer
SAST
Mission
Spacecraft
Bus & Motor
Unknown
Mass
Unknown
Launch date (UTC)
2024-08-06 (1 year ago)
Launch vehicle
Unknown
Launch site
Taiyaun Space Center, China (TSC)
Object type
Payload
Rocket body
Debris
Shape & HBR
Unknown shape, 1.1 m
Radar Cross Section
Small (<0.1 m²)

Expand to show TLE details & history
Last TLE update: 1 day ago

TLE from 1 day ago
0 CZ-6A DEB
1 60754U 24140ED  25342.38583802  .00003894  00000-0  18100-2 0  9992
2 60754  88.9693 294.5610 0059231  96.1758 264.6184 14.19504651 67303
Epoch: 2025-12-08T09:15Z
TLE epoch observation values (Epoch: 2025-12-08T09:15:36.404Z)
Latitude
-0.00006°
Longitude
78.27369°
Altitude
834.335 km
Speed
7.433 km/s
True Right ascension
19h 38m 14s
True Declination
0° 00' 00"
Sunlit
Object was in daylight at epoch
Visualization orbit readout
Latitude
Unknown
Longitude
Unknown
Altitude
Unknown
Speed
Unknown
Apparent Right ascension
Unknown
Apparent Declination
Unknown
Sunlit
N/A
Visualization observer readout
Local Sidereal Time
10:47:42
Azimuth
Unknown
Elevation
Unknown
Doppler factor
Unknown
Orbital elements
Apogee altitude
866.639 km
Perigee altitude
781.322 km
Semi-major axis
7,202.117 km
Eccentricity
0.00592
Inclination
88.9693°
RAAN
294.561°
Arg. of periapsis
96.1758°
True anomaly
263.94314°
Mean anomaly
264.6184°
Eccentric anomaly
264.28072°
Mean motion
3.55102 °/min
Orbital period
101.38 mins
BSTAR
0.00181
Loading maneuver chart data...
Computing Atmospheric mass density...
Loading historical data...
Loading historical data...
Loading historical data...
Loading historical data...
Loading historical data...
Loading historical data...
Loading historical data...

Documentation

Showing up to 5 results
|